QPF
0.00 0.00 0.00 0.00 0.00 0.00 0.00 0.00 0.00 0.01 0.01 0.02 0.03 0.06 0.05 0.02 0.01 0.01 0.01 0.02 0.01 0.02 0.02 0.01 0.01 0.01 0.02 0.02 0.02 0.02 0.02 0.02 0.03 0.04 0.04 0.06 0.03 0.03 0.03 0.03 0.02 0.02 0.02
0.00 0.00 0.00 0.00 0.00 0.00 0.00 0.00 0.00 0.01 0.02 0.03 0.01 0.01 0.02 0.02 0.01 0.01 0.01 0.02 0.01 0.02 0.02 0.02 0.01 0.01 0.02 0.02 0.03 0.03 0.03 0.03 0.04 0.04 0.04 0.04 0.02 0.03 0.04 0.04 0.04 0.03 0.02
0.00 0.00 0.00 0.00 0.00 0.00 0.00 0.00 0.00 0.00 0.01 0.03 0.03 0.01 0.01 0.02 0.01 0.01 0.01 0.01 0.01 0.02 0.03 0.02 0.01 0.01 0.01 0.02 0.02 0.02 0.02 0.03 0.05 0.05 0.03 0.02 0.02 0.02 0.03 0.05 0.04 0.02 0.01
0.00 0.00 0.00 0.00 0.00 0.00 0.00 0.00 0.00 0.00 0.01 0.02 0.03 0.02 0.01 0.01 0.01 0.01 0.01 0.01 0.01 0.02 0.02 0.02 0.01 0.01 0.01 0.01 0.02 0.03 0.04 0.04 0.03 0.03 0.02 0.02 0.02 0.02 0.02 0.03 0.03 0.02 0.01
0.00 0.00 0.00 0.00 0.00 0.00 0.00 0.00 0.01 0.01 0.02 0.02 0.03 0.03 0.03 0.02 0.01 0.01 0.02 0.01 0.01 0.01 0.02 0.02 0.02 0.01 0.01 0.01 0.02 0.03 0.05 0.04 0.03 0.03 0.02 0.02 0.02 0.02 0.02 0.02 0.02 0.02 0.02
0.01 0.01 0.00 0.00 0.00 0.00 0.00 0.01 0.01 0.02 0.03 0.03 0.03 0.04 0.03 0.02 0.01 0.02 0.03 0.03 0.02 0.01 0.02 0.04 0.02 0.01 0.01 0.01 0.02 0.04 0.03 0.03 0.04 0.05 0.04 0.03 0.03 0.02 0.02 0.02 0.03 0.03 0.03
0.03 0.03 0.01 0.01 0.01 0.01 0.01 0.02 0.02 0.05 0.04 0.02 0.02 0.02 0.02 0.01 0.01 0.02 0.02 0.02 0.01 0.01 0.02 0.03 0.03 0.03 0.02 0.03 0.04 0.05 0.05 0.05 0.05 0.05 0.04 0.03 0.03 0.04 0.03 0.03 0.05 0.07 0.08
0.03 0.03 0.02 0.01 0.02 0.02 0.02 0.04 0.03 0.04 0.03 0.03 0.02 0.03 0.03 0.02 0.03 0.03 0.02 0.01 0.01 0.02 0.03 0.03 0.03 0.03 0.03 0.03 0.04 0.05 0.06 0.05 0.05 0.05 0.06 0.06 0.04 0.04 0.05 0.06 0.08 0.10 0.11
0.05 0.05 0.03 0.02 0.02 0.03 0.03 0.04 0.05 0.05 0.05 0.05 0.05 0.05 0.05 0.05 0.04 0.05 0.03 0.02 0.02 0.03 0.02 0.02 0.03 0.02 0.03 0.03 0.02 0.03 0.06 0.04 0.03 0.04 0.05 0.05 0.05 0.05 0.06 0.07 0.09 0.09 0.07
0.06 0.07 0.05 0.03 0.03 0.03 0.03 0.04 0.05 0.07 0.08 0.07 0.06 0.06 0.07 0.06 0.05 0.05 0.04 0.03 0.04 0.03 0.02 0.02 0.02 0.02 0.03 0.04 0.04 0.03 0.04 0.05 0.05 0.06 0.06 0.06 0.07 0.07 0.06 0.06 0.05 0.04 0.05
0.04 0.05 0.04 0.03 0.04 0.04 0.05 0.05 0.07 0.10 0.09 0.07 0.06 0.07 0.09 0.08 0.07 0.06 0.04 0.04 0.05 0.04 0.03 0.02 0.02 0.02 0.03 0.03 0.03 0.03 0.04 0.05 0.04 0.05 0.06 0.08 0.09 0.07 0.05 0.05 0.04 0.03 0.05
0.03 0.03 0.03 0.04 0.04 0.05 0.05 0.05 0.05 0.05 0.07 0.07 0.05 0.05 0.06 0.07 0.06 0.04 0.04 0.04 0.04 0.04 0.04 0.04 0.03 0.04 0.04 0.04 0.04 0.05 0.05 0.05 0.04 0.04 0.05 0.05 0.05 0.05 0.05 0.05 0.05 0.04 0.05
0.03 0.03 0.04 0.04 0.05 0.05 0.05 0.05 0.04 0.04 0.06 0.04 0.03 0.03 0.03 0.02 0.03 0.04 0.05 0.04 0.04 0.05 0.05 0.05 0.05 0.04 0.05 0.04 0.04 0.04 0.05 0.05 0.05 0.04 0.04 0.03 0.03 0.03 0.04 0.03 0.04 0.04 0.04
0.03 0.04 0.04 0.04 0.05 0.06 0.06 0.06 0.05 0.05 0.05 0.04 0.03 0.03 0.02 0.02 0.03 0.04 0.05 0.05 0.05 0.05 0.06 0.06 0.05 0.04 0.05 0.06 0.04 0.05 0.05 0.04 0.03 0.03 0.03 0.02 0.02 0.02 0.03 0.03 0.03 0.04 0.04
0.03 0.04 0.04 0.04 0.05 0.05 0.06 0.05 0.06 0.05 0.04 0.03 0.02 0.02 0.02 0.02 0.03 0.04 0.04 0.05 0.06 0.06 0.08 0.07 0.06 0.05 0.06 0.05 0.05 0.05 0.04 0.04 0.03 0.03 0.03 0.02 0.03 0.03 0.03 0.03 0.03 0.02 0.02
0.03 0.03 0.03 0.04 0.06 0.10 0.08 0.06 0.07 0.04 0.03 0.02 0.02 0.02 0.02 0.02 0.02 0.04 0.03 0.04 0.04 0.05 0.10 0.10 0.06 0.06 0.06 0.05 0.04 0.04 0.03 0.04 0.04 0.04 0.05 0.05 0.04 0.04 0.04 0.03 0.03 0.02 0.02
0.01 0.02 0.03 0.03 0.06 0.14 0.16 0.08 0.05 0.05 0.04 0.03 0.03 0.02 0.03 0.03 0.04 0.03 0.03 0.04 0.03 0.03 0.03 0.04 0.05 0.06 0.05 0.04 0.03 0.03 0.02 0.03 0.04 0.06 0.06 0.07 0.06 0.06 0.04 0.04 0.03 0.03 0.02
0.02 0.02 0.03 0.04 0.05 0.11 0.15 0.10 0.07 0.06 0.06 0.05 0.04 0.05 0.04 0.04 0.05 0.03 0.03 0.04 0.03 0.03 0.03 0.04 0.04 0.04 0.03 0.03 0.03 0.02 0.02 0.01 0.02 0.03 0.03 0.03 0.03 0.03 0.04 0.05 0.05 0.04 0.03
0.03 0.03 0.04 0.05 0.05 0.08 0.13 0.09 0.08 0.07 0.06 0.06 0.05 0.06 0.06 0.05 0.05 0.06 0.03 0.04 0.04 0.05 0.04 0.04 0.03 0.02 0.02 0.02 0.02 0.02 0.02 0.02 0.01 0.01 0.01 0.01 0.01 0.02 0.03 0.05 0.05 0.05 0.05
0.04 0.04 0.05 0.06 0.06 0.07 0.09 0.09 0.10 0.12 0.08 0.06 0.05 0.05 0.05 0.04 0.04 0.07 0.08 0.06 0.04 0.04 0.03 0.03 0.02 0.01 0.01 0.02 0.02 0.02 0.02 0.02 0.02 0.02 0.01 0.01 0.01 0.02 0.03 0.03 0.03 0.04 0.04
0.06 0.07 0.06 0.06 0.06 0.08 0.09 0.09 0.09 0.09 0.08 0.07 0.08 0.07 0.05 0.04 0.04 0.05 0.06 0.07 0.07 0.06 0.04 0.04 0.02 0.02 0.03 0.02 0.02 0.02 0.02 0.01 0.01 0.01 0.01 0.01 0.02 0.03 0.03 0.03 0.03 0.03 0.03
0.07 0.08 0.08 0.06 0.06 0.07 0.09 0.08 0.08 0.07 0.04 0.05 0.06 0.06 0.06 0.05 0.05 0.05 0.05 0.05 0.05 0.05 0.04 0.03 0.02 0.03 0.03 0.02 0.03 0.03 0.03 0.03 0.02 0.03 0.03 0.03 0.03 0.03 0.04 0.04 0.03 0.04 0.03
0.07 0.08 0.09 0.07 0.05 0.06 0.07 0.08 0.07 0.06 0.02 0.02 0.02 0.04 0.04 0.04 0.04 0.04 0.04 0.04 0.04 0.03 0.03 0.03 0.03 0.03 0.02 0.03 0.04 0.05 0.05 0.05 0.05 0.04 0.03 0.04 0.04 0.04 0.03 0.05 0.05 0.04 0.02
0.06 0.08 0.09 0.08 0.06 0.05 0.05 0.06 0.07 0.06 0.03 0.01 0.02 0.02 0.03 0.04 0.04 0.03 0.02 0.03 0.03 0.03 0.04 0.04 0.03 0.03 0.02 0.02 0.04 0.07 0.08 0.06 0.06 0.05 0.04 0.04 0.05 0.04 0.04 0.03 0.04 0.05 0.03
0.06 0.08 0.08 0.07 0.06 0.05 0.04 0.05 0.06 0.06 0.03 0.02 0.02 0.03 0.03 0.03 0.03 0.03 0.03 0.03 0.04 0.04 0.05 0.07 0.07 0.05 0.04 0.04 0.04 0.04 0.05 0.04 0.03 0.04 0.03 0.02 0.03 0.04 0.04 0.05 0.04 0.04 0.04
0.09 0.10 0.08 0.07 0.06 0.05 0.04 0.05 0.05 0.05 0.04 0.03 0.02 0.03 0.05 0.04 0.03 0.03 0.04 0.05 0.05 0.05 0.05 0.05 0.04 0.04 0.05 0.05 0.04 0.03 0.03 0.02 0.02 0.02 0.02 0.02 0.03 0.04 0.06 0.06 0.04 0.02 0.02
MSLP
1021.60 1021.45 1021.29 1021.11 1020.90 1020.68 1020.47 1020.27 1020.11 1019.97 1019.86 1019.74 1019.61 1019.44 1019.22 1018.94 1018.61 1018.24 1017.84 1017.44 1017.03 1016.63 1016.24 1015.85 1015.47 1015.11 1014.77 1014.47 1014.23 1014.07 1013.99 1014.00 1014.11 1014.28 1014.52 1014.78 1015.07 1015.36 1015.64 1015.91 1016.16 1016.41 1016.66
1021.60 1021.49 1021.35 1021.17 1020.95 1020.71 1020.47 1020.26 1020.10 1019.98 1019.91 1019.85 1019.77 1019.65 1019.45 1019.17 1018.81 1018.40 1017.96 1017.50 1017.06 1016.65 1016.26 1015.89 1015.52 1015.16 1014.79 1014.42 1014.08 1013.78 1013.56 1013.43 1013.41 1013.50 1013.68 1013.95 1014.27 1014.63 1014.98 1015.33 1015.66 1015.96 1016.25
1021.55 1021.50 1021.42 1021.28 1021.08 1020.84 1020.58 1020.35 1020.17 1020.06 1019.99 1019.95 1019.89 1019.77 1019.57 1019.27 1018.88 1018.42 1017.92 1017.43 1016.97 1016.55 1016.18 1015.85 1015.52 1015.17 1014.80 1014.40 1013.98 1013.58 1013.23 1012.96 1012.82 1012.80 1012.93 1013.17 1013.50 1013.90 1014.31 1014.73 1015.12 1015.47 1015.80
1021.49 1021.54 1021.55 1021.48 1021.32 1021.09 1020.83 1020.57 1020.36 1020.22 1020.12 1020.06 1019.98 1019.84 1019.60 1019.26 1018.81 1018.29 1017.75 1017.22 1016.74 1016.33 1015.99 1015.69 1015.41 1015.12 1014.77 1014.36 1013.91 1013.44 1012.99 1012.61 1012.35 1012.24 1012.28 1012.48 1012.79 1013.19 1013.64 1014.10 1014.53 1014.93 1015.28
1021.48 1021.65 1021.77 1021.79 1021.69 1021.48 1021.21 1020.92 1020.66 1020.45 1020.30 1020.17 1020.04 1019.84 1019.55 1019.15 1018.65 1018.07 1017.47 1016.90 1016.39 1015.98 1015.66 1015.41 1015.18 1014.94 1014.63 1014.26 1013.81 1013.30 1012.80 1012.34 1011.99 1011.78 1011.74 1011.86 1012.12 1012.50 1012.94 1013.41 1013.87 1014.30 1014.68
1021.54 1021.84 1022.08 1022.19 1022.15 1021.96 1021.68 1021.34 1021.01 1020.72 1020.48 1020.28 1020.06 1019.80 1019.45 1018.98 1018.42 1017.78 1017.12 1016.50 1015.96 1015.52 1015.20 1014.97 1014.79 1014.59 1014.35 1014.02 1013.60 1013.10 1012.58 1012.08 1011.66 1011.36 1011.23 1011.27 1011.46 1011.78 1012.19 1012.65 1013.11 1013.56 1013.97
1021.67 1022.10 1022.44 1022.64 1022.65 1022.47 1022.16 1021.76 1021.35 1020.97 1020.64 1020.34 1020.05 1019.72 1019.30 1018.78 1018.16 1017.46 1016.74 1016.06 1015.46 1014.98 1014.62 1014.39 1014.21 1014.05 1013.86 1013.58 1013.21 1012.76 1012.25 1011.73 1011.27 1010.91 1010.70 1010.64 1010.75 1010.99 1011.35 1011.77 1012.23 1012.70 1013.14
1021.87 1022.39 1022.82 1023.08 1023.11 1022.92 1022.57 1022.11 1021.61 1021.14 1020.72 1020.34 1019.98 1019.59 1019.12 1018.56 1017.89 1017.14 1016.36 1015.60 1014.92 1014.36 1013.94 1013.65 1013.46 1013.30 1013.14 1012.91 1012.60 1012.20 1011.74 1011.24 1010.77 1010.37 1010.08 1009.94 1009.96 1010.12 1010.41 1010.79 1011.24 1011.72 1012.22
1022.10 1022.69 1023.17 1023.44 1023.47 1023.26 1022.85 1022.32 1021.75 1021.20 1020.70 1020.26 1019.85 1019.42 1018.92 1018.33 1017.62 1016.82 1015.97 1015.12 1014.34 1013.68 1013.16 1012.78 1012.53 1012.35 1012.19 1012.00 1011.75 1011.42 1011.02 1010.57 1010.11 1009.70 1009.37 1009.16 1009.09 1009.17 1009.39 1009.74 1010.18 1010.68 1011.23
1022.34 1022.96 1023.44 1023.70 1023.70 1023.44 1022.98 1022.39 1021.75 1021.14 1020.59 1020.11 1019.67 1019.21 1018.70 1018.08 1017.34 1016.49 1015.57 1014.63 1013.73 1012.94 1012.29 1011.80 1011.46 1011.22 1011.05 1010.89 1010.69 1010.44 1010.11 1009.73 1009.31 1008.91 1008.57 1008.31 1008.18 1008.19 1008.35 1008.66 1009.09 1009.62 1010.22
1022.56 1023.17 1023.62 1023.83 1023.78 1023.46 1022.95 1022.32 1021.64 1021.00 1020.42 1019.92 1019.46 1018.99 1018.46 1017.83 1017.05 1016.15 1015.15 1014.10 1013.09 1012.16 1011.36 1010.75 1010.29 1009.99 1009.78 1009.63 1009.48 1009.30 1009.06 1008.76 1008.42 1008.06 1007.72 1007.45 1007.28 1007.24 1007.36 1007.63 1008.05 1008.60 1009.25
1022.75 1023.31 1023.70 1023.85 1023.74 1023.38 1022.83 1022.18 1021.49 1020.84 1020.25 1019.74 1019.26 1018.78 1018.23 1017.55 1016.73 1015.76 1014.68 1013.54 1012.40 1011.34 1010.41 1009.66 1009.10 1008.72 1008.48 1008.33 1008.22 1008.11 1007.96 1007.75 1007.49 1007.19 1006.89 1006.63 1006.44 1006.37 1006.45 1006.69 1007.09 1007.65 1008.34
1022.89 1023.38 1023.70 1023.78 1023.62 1023.23 1022.67 1022.02 1021.35 1020.71 1020.13 1019.61 1019.11 1018.60 1018.00 1017.27 1016.38 1015.34 1014.17 1012.93 1011.68 1010.50 1009.46 1008.60 1007.94 1007.49 1007.20 1007.05 1006.97 1006.93 1006.86 1006.74 1006.57 1006.35 1006.10 1005.86 1005.68 1005.59 1005.64 1005.86 1006.24 1006.79 1007.48
1022.97 1023.39 1023.63 1023.65 1023.46 1023.07 1022.53 1021.92 1021.28 1020.67 1020.10 1019.57 1019.03 1018.46 1017.79 1016.98 1016.01 1014.88 1013.63 1012.30 1010.96 1009.69 1008.56 1007.61 1006.88 1006.36 1006.03 1005.86 1005.80 1005.79 1005.79 1005.76 1005.67 1005.52 1005.34 1005.15 1004.98 1004.90 1004.93 1005.12 1005.47 1005.99 1006.66
1022.97 1023.31 1023.49 1023.48 1023.28 1022.92 1022.44 1021.89 1021.31 1020.73 1020.17 1019.61 1019.02 1018.37 1017.60 1016.69 1015.62 1014.41 1013.07 1011.68 1010.28 1008.95 1007.75 1006.74 1005.95 1005.37 1005.00 1004.80 1004.73 1004.73 1004.76 1004.78 1004.75 1004.68 1004.56 1004.42 1004.30 1004.23 1004.26 1004.42 1004.75 1005.23 1005.87
1022.88 1023.16 1023.30 1023.27 1023.10 1022.80 1022.39 1021.92 1021.41 1020.88 1020.32 1019.73 1019.07 1018.32 1017.45 1016.43 1015.26 1013.96 1012.57 1011.12 1009.69 1008.33 1007.10 1006.05 1005.20 1004.56 1004.13 1003.87 1003.75 1003.72 1003.74 1003.78 1003.79 1003.77 1003.71 1003.63 1003.56 1003.53 1003.57 1003.73 1004.03 1004.48 1005.08
1022.70 1022.93 1023.04 1023.03 1022.91 1022.68 1022.37 1021.99 1021.55 1021.06 1020.51 1019.87 1019.15 1018.30 1017.32 1016.20 1014.95 1013.59 1012.16 1010.70 1009.26 1007.90 1006.65 1005.57 1004.66 1003.95 1003.42 1003.06 1002.85 1002.74 1002.71 1002.72 1002.74 1002.74 1002.74 1002.72 1002.71 1002.73 1002.82 1003.00 1003.30 1003.73 1004.29
1022.44 1022.64 1022.74 1022.76 1022.69 1022.54 1022.33 1022.04 1021.67 1021.22 1020.67 1020.01 1019.21 1018.29 1017.23 1016.04 1014.74 1013.35 1011.92 1010.47 1009.06 1007.71 1006.45 1005.33 1004.36 1003.55 1002.90 1002.40 1002.04 1001.80 1001.67 1001.61 1001.59 1001.61 1001.64 1001.68 1001.75 1001.84 1001.99 1002.22 1002.54 1002.98 1003.53
1022.13 1022.30 1022.40 1022.45 1022.44 1022.37 1022.24 1022.03 1021.73 1021.31 1020.77 1020.08 1019.26 1018.29 1017.19 1015.97 1014.66 1013.29 1011.90 1010.50 1009.12 1007.80 1006.54 1005.38 1004.32 1003.38 1002.57 1001.89 1001.35 1000.94 1000.66 1000.49 1000.41 1000.41 1000.46 1000.57 1000.71 1000.89 1001.12 1001.42 1001.79 1002.25 1002.80
1021.81 1021.96 1022.07 1022.14 1022.17 1022.16 1022.10 1021.95 1021.69 1021.31 1020.78 1020.10 1019.27 1018.30 1017.20 1016.01 1014.75 1013.44 1012.12 1010.79 1009.48 1008.19 1006.92 1005.71 1004.55 1003.46 1002.46 1001.58 1000.83 1000.22 999.77 999.47 999.31 999.27 999.34 999.48 999.70 999.96 1000.27 1000.64 1001.07 1001.57 1002.14
1021.52 1021.66 1021.76 1021.84 1021.90 1021.93 1021.90 1021.79 1021.57 1021.22 1020.72 1020.06 1019.26 1018.33 1017.29 1016.18 1015.01 1013.81 1012.59 1011.36 1010.11 1008.86 1007.59 1006.31 1005.04 1003.79 1002.61 1001.52 1000.56 999.76 999.13 998.70 998.44 998.36 998.41 998.58 998.84 999.16 999.54 999.96 1000.44 1000.96 1001.55
1021.29 1021.41 1021.50 1021.58 1021.65 1021.69 1021.68 1021.59 1021.39 1021.06 1020.59 1019.98 1019.24 1018.39 1017.46 1016.46 1015.43 1014.36 1013.27 1012.15 1010.98 1009.76 1008.49 1007.15 1005.78 1004.40 1003.04 1001.77 1000.62 999.64 998.86 998.30 997.96 997.81 997.84 998.01 998.28 998.62 999.01 999.45 999.92 1000.44 1001.01
1021.11 1021.21 1021.29 1021.37 1021.43 1021.46 1021.44 1021.35 1021.16 1020.86 1020.43 1019.88 1019.23 1018.49 1017.69 1016.84 1015.96 1015.04 1014.09 1013.09 1012.01 1010.83 1009.56 1008.19 1006.74 1005.25 1003.77 1002.36 1001.07 999.96 999.07 998.41 997.99 997.78 997.76 997.89 998.12 998.42 998.76 999.14 999.55 1000.01 1000.52
1020.93 1021.03 1021.10 1021.17 1021.21 1021.23 1021.20 1021.11 1020.92 1020.64 1020.26 1019.78 1019.23 1018.61 1017.95 1017.26 1016.54 1015.78 1014.98 1014.09 1013.10 1011.98 1010.73 1009.35 1007.87 1006.33 1004.79 1003.30 1001.94 1000.76 999.80 999.09 998.61 998.34 998.25 998.30 998.43 998.63 998.85 999.09 999.37 999.68 1000.06
1020.70 1020.80 1020.88 1020.94 1020.98 1020.99 1020.95 1020.84 1020.66 1020.40 1020.06 1019.66 1019.21 1018.71 1018.20 1017.66 1017.10 1016.50 1015.82 1015.06 1014.16 1013.12 1011.92 1010.58 1009.12 1007.59 1006.05 1004.57 1003.22 1002.04 1001.08 1000.34 999.82 999.50 999.33 999.26 999.25 999.27 999.31 999.34 999.40 999.51 999.69
1020.34 1020.47 1020.57 1020.64 1020.69 1020.70 1020.65 1020.54 1020.37 1020.14 1019.85 1019.51 1019.15 1018.77 1018.39 1017.99 1017.57 1017.10 1016.56 1015.91 1015.12 1014.17 1013.06 1011.80 1010.42 1008.97 1007.52 1006.12 1004.84 1003.73 1002.82 1002.11 1001.58 1001.21 1000.94 1000.74 1000.56 1000.36 1000.15 999.92 999.71 999.54 999.47
Thickness
5781 5782 5782 5781 5779 5777 5774 5770 5767 5764 5760 5756 5752 5749 5747 5746 5745 5743 5742 5740 5739 5737 5735 5733 5731 5729 5727 5725 5724 5723 5721 5719 5719 5716 5714 5715 5716 5716 5717 5717 5717 5717 5717
5776 5778 5779 5779 5777 5775 5772 5770 5767 5764 5760 5757 5754 5750 5748 5745 5744 5742 5740 5739 5737 5736 5734 5731 5729 5727 5725 5724 5723 5721 5719 5717 5716 5713 5709 5707 5708 5711 5713 5713 5713 5713 5714
5774 5775 5776 5776 5775 5774 5772 5771 5766 5763 5760 5757 5752 5749 5745 5743 5740 5739 5737 5737 5735 5734 5732 5730 5728 5726 5724 5721 5720 5720 5717 5714 5713 5712 5708 5703 5701 5703 5707 5709 5709 5710 5710
5776 5775 5775 5774 5774 5774 5773 5769 5766 5762 5758 5755 5751 5746 5742 5739 5738 5737 5736 5735 5733 5732 5730 5728 5726 5724 5722 5720 5719 5718 5716 5713 5710 5709 5708 5707 5705 5701 5700 5703 5705 5706 5706
5775 5775 5775 5775 5775 5774 5771 5767 5764 5760 5757 5754 5751 5746 5742 5740 5737 5736 5734 5732 5731 5730 5728 5726 5724 5723 5721 5719 5718 5716 5714 5712 5709 5707 5706 5704 5702 5702 5699 5697 5699 5701 5703
5774 5774 5775 5773 5771 5770 5768 5764 5761 5757 5754 5752 5750 5746 5742 5738 5735 5733 5730 5728 5728 5727 5726 5725 5723 5721 5719 5718 5716 5714 5712 5710 5708 5706 5704 5703 5701 5699 5698 5695 5694 5695 5697
5770 5770 5769 5768 5767 5766 5765 5762 5759 5754 5752 5750 5747 5745 5742 5738 5735 5732 5729 5727 5725 5725 5724 5723 5721 5719 5718 5716 5714 5712 5710 5709 5706 5704 5702 5702 5701 5700 5698 5695 5693 5691 5692
5766 5766 5765 5766 5765 5764 5761 5759 5757 5753 5751 5748 5745 5743 5741 5737 5734 5732 5729 5726 5724 5724 5722 5720 5719 5717 5716 5714 5712 5710 5708 5706 5704 5703 5701 5700 5699 5699 5697 5695 5692 5688 5687
5761 5761 5761 5762 5762 5761 5759 5757 5754 5751 5749 5746 5743 5740 5738 5735 5732 5729 5727 5725 5723 5722 5720 5718 5716 5714 5712 5711 5710 5707 5705 5704 5702 5700 5699 5698 5698 5697 5696 5695 5694 5689 5684
5756 5757 5758 5758 5759 5758 5756 5754 5752 5749 5747 5744 5741 5739 5736 5733 5731 5728 5724 5722 5720 5719 5717 5715 5713 5711 5709 5708 5706 5704 5703 5701 5699 5698 5696 5696 5695 5694 5694 5693 5692 5690 5686
5752 5752 5754 5754 5754 5753 5751 5749 5748 5745 5742 5740 5738 5736 5733 5730 5728 5724 5721 5719 5717 5715 5714 5712 5710 5708 5706 5704 5702 5700 5699 5697 5696 5695 5694 5693 5692 5691 5691 5690 5688 5686 5684
5747 5747 5747 5748 5748 5747 5745 5744 5743 5741 5739 5737 5735 5732 5729 5726 5724 5721 5719 5716 5714 5712 5710 5708 5707 5705 5703 5701 5699 5697 5696 5694 5692 5691 5690 5689 5689 5688 5687 5686 5684 5683 5681
5740 5741 5741 5741 5741 5740 5739 5739 5738 5737 5736 5734 5731 5728 5725 5722 5720 5718 5715 5713 5711 5709 5707 5705 5703 5701 5699 5698 5696 5694 5692 5690 5689 5688 5687 5686 5685 5684 5683 5682 5681 5679 5678
5733 5734 5734 5734 5734 5734 5733 5733 5733 5733 5731 5729 5726 5723 5721 5719 5716 5714 5712 5709 5707 5705 5703 5701 5699 5698 5696 5694 5692 5690 5689 5687 5686 5685 5684 5683 5682 5681 5680 5679 5677 5676 5674
5727 5728 5728 5728 5728 5727 5726 5727 5727 5726 5725 5723 5721 5719 5717 5715 5712 5710 5708 5706 5703 5701 5699 5697 5696 5695 5693 5691 5689 5687 5686 5684 5683 5682 5681 5680 5680 5679 5678 5677 5675 5673 5670
5721 5723 5723 5722 5722 5722 5721 5721 5721 5720 5719 5718 5716 5715 5713 5711 5708 5706 5704 5701 5699 5697 5695 5693 5692 5691 5690 5688 5686 5684 5682 5680 5679 5677 5676 5676 5675 5675 5674 5673 5672 5671 5668
5716 5718 5720 5718 5717 5717 5717 5716 5716 5715 5714 5713 5712 5711 5709 5706 5704 5702 5699 5697 5694 5692 5690 5689 5688 5686 5685 5684 5682 5680 5678 5676 5674 5673 5672 5671 5671 5670 5670 5669 5668 5667 5666
5712 5713 5715 5714 5713 5713 5711 5711 5711 5709 5708 5707 5706 5705 5703 5701 5699 5696 5694 5692 5689 5687 5686 5685 5684 5683 5682 5680 5678 5675 5673 5671 5669 5668 5667 5666 5666 5666 5665 5664 5663 5661 5660
5708 5708 5709 5710 5709 5707 5706 5705 5704 5703 5701 5700 5699 5698 5698 5696 5693 5691 5689 5687 5685 5683 5682 5681 5680 5679 5678 5676 5674 5672 5669 5667 5665 5664 5662 5662 5661 5660 5660 5659 5657 5656 5655
5702 5702 5702 5702 5701 5701 5700 5698 5696 5695 5694 5694 5693 5693 5693 5691 5688 5687 5685 5683 5681 5679 5677 5675 5675 5674 5672 5671 5670 5668 5666 5662 5660 5659 5657 5657 5656 5655 5654 5653 5651 5649 5648
5696 5697 5696 5695 5695 5695 5693 5691 5690 5689 5689 5688 5687 5687 5686 5685 5683 5681 5680 5678 5676 5673 5671 5670 5669 5668 5667 5666 5664 5663 5660 5658 5655 5654 5653 5652 5651 5649 5648 5647 5646 5644 5643
5688 5689 5689 5688 5687 5687 5686 5684 5682 5683 5682 5682 5681 5680 5679 5679 5679 5676 5674 5672 5670 5667 5665 5664 5662 5662 5661 5660 5659 5657 5655 5653 5651 5649 5648 5647 5645 5643 5641 5640 5639 5638 5636
5680 5681 5680 5679 5679 5679 5679 5676 5675 5677 5676 5674 5674 5673 5672 5671 5671 5669 5667 5665 5663 5661 5659 5658 5656 5656 5655 5654 5653 5651 5650 5648 5646 5644 5643 5641 5639 5637 5635 5633 5632 5631 5629
5671 5672 5672 5671 5670 5671 5671 5670 5670 5669 5668 5666 5666 5665 5664 5663 5662 5661 5660 5659 5657 5655 5653 5652 5651 5650 5649 5648 5647 5645 5644 5642 5640 5638 5636 5634 5632 5630 5628 5627 5625 5623 5621
5662 5663 5663 5663 5663 5663 5663 5663 5662 5661 5659 5658 5658 5657 5657 5656 5653 5653 5652 5652 5651 5650 5649 5648 5647 5645 5643 5643 5641 5639 5638 5636 5634 5631 5629 5628 5625 5624 5621 5619 5617 5615 5614
5655 5654 5654 5655 5655 5655 5655 5655 5654 5653 5651 5651 5650 5650 5649 5648 5646 5645 5644 5645 5644 5644 5643 5642 5641 5640 5639 5637 5635 5633 5632 5629 5627 5625 5624 5621 5619 5617 5615 5612 5610 5609 5608